Погода Троицко-Печерск

Погода Троицко-Печерск : погода сейчас, прогноз погоды и архив. Всё, что Вы хотите узнать о погоде Троицко-Печерск!

Хотите узнать прогноз погоды Троицко-Печерск? Тогда Вам сюда: Погода Троицко-Печерск

Поиск расширенной информации на нашем сайте:

Другие новости

Новости СМИ2

Главная страница сайта

Новости сайта

03.07.2017

Напоминаем, что на нашем специализированном сайте Метеоцентр.Азия вы можете получить высокодетализированные автоматические прогнозы погоды по пунктам России, СНГ и мира в авиационном формате (включающие направление и скорость ветра, видимость, явления погоды, количество и форму облачности, нижнюю и верхнюю границу облачности).

Рекомендуем: Заказать где купить постельное белье.

Погода Троицко-Печерск - сегодня

Время (UTC), дата Ветер
(°,м/с) 
Видим.   Явления Облачность Т
(°С)
Тd
(°С)
f(%) Тe
(°С)
Pmin
(гПа)
dP
(гПа)
Po
(мм)
O2
(г/м3)
Тmin Tmax R s Состояние
почвы
09 20.01.18 100 (В) 20000 м    10/3 300 м средняя, верхняя 
[St|As trans|Cs]
-19.9 -22.4 80 -20  1043.6  0.6  768  336           
12 20.01.18 тихо ()   20000 м    3/0 средняя, верхняя 
[As trans|Cs]
-21.5 -24.2 79 -22  1043.9  0.2  769  338           
15 20.01.18 тихо ()   20000 м    4/0 средняя, верхняя 
[As op|Ci fib]
-23.8 -26.7 77 -24  1043.5  -0.5  768  341    -19       
18 20.01.18 тихо ()   20000 м    4/0 верхняя 
[Ci fib]
-24.1 -27.1 76 -24  1043.1  -0.4  768  341           
21 20.01.18 тихо ()   20000 м    6/0 верхняя 
[Ci fib]
-24.8 -27.8 76 -25  1043.1  0.1  768  342           
00 21.01.18 тихо ()   20000 м    6/0 верхняя 
[Ci fib]
-22.1 -24.7 79 -22  1042.8  -0.5  767  338           
03 21.01.18 100 (В) 20000 м    6/0 верхняя 
[Ci fib]
-17.8 -20.2 81 -20  1041.7  -0.4  767  332  -25      43  равномерный
сухой снег
100% 
06 21.01.18 110 (В) 20000 м    8/0 средняя, верхняя 
[Ac As|Ci fib]
-15.8 -18 83 -21  1042  0.5  768  330           
09 21.01.18 120 (ЮВ) 20000 м    4/0 верхняя 
[Ci fib]
-14.1 -16.8 80 -19  1042.3  0.4  768  328           
12 21.01.18 110 (В) 20000 м    4/0 средняя, верхняя 
[Ac lent|Ci fib]
-15.7 -18.8 77 -21  1043  0.5  768  330           
15 21.01.18 100 (В) 20000 м    3/0 верхняя 
[Ci fib]
-17.6 -21.1 74 -23  1043.4  0.3  768  333    -14.1       
18 21.01.18 100 (В) 20000 м    3/0 верхняя 
[Ci fib]
-19.4 -23 73 -24  1044.1  0.5  769  335           
21 21.01.18 110 (В) 20000 м    3/0 верхняя 
[Ci fib]
-21.7 -26 68 -26  1044  -0.2  769  338           
00 22.01.18 100 (В) 20000 м    3/0 верхняя 
[Ci fib]
-22.7 -27.3 66 -27  1043.4  -0.6  768  339           
03 22.01.18 120 (ЮВ) 20000 м    1/0 верхняя 
[Ci fib]
-22.2 -27.1 64 -27  1042.3  -1  767  338  -22.8      43  равномерный
сухой снег
100% 
06 22.01.18 110 (В) 20000 м    9/0 средняя, верхняя 
[Ac trans|Ci fib]
-20.8 -25.6 65 -25  1041.1  -1.1  767  336           
09 22.01.18 110 (В) 20000 м    10/0 средняя, верхняя 
[Ac trans|Cs]
-19.5 -24.3 66 -26  1039.5  -1.5  765  334           
12 22.01.18 110 (В) 20000 м    10/0 средняя, верхняя 
[As trans|Cs]
-18.5 -22.7 69 -24  1038.6  -0.8  765  332           
15 22.01.18 100 (В) 20000 м    10/0 средняя, верхняя 
[As trans|Cs]
-18 -22.4 68 -23  1037.9  -0.6  764  331    -16.2       
18 22.01.18 140 (ЮВ) 6-13{13}  4000 м  слаб. снег  10/10 300 м 
[Frnb]
-16.6 -19.9 76 -23  1038  0.2  765  330           
21 22.01.18 150 (ЮВ) 5-10{13}  10 км  слаб. снег  10/10 330 м 
[Frnb]
-17 -20.1 77 -23  1038.2  0.1  765  330           
00 23.01.18 140 (ЮВ) 20000 м  в посл. час снег  10/10 360 м 
[Frnb]
-16.7 -19.7 78 -22  1038  0.1  765  330           
03 23.01.18 140 (ЮВ) 20000 м    10/10 330 м 
[Frnb]
-16.9 -19.9 78 -22  1038.3  0.3  765  330      41  равномерный
сухой снег
100% 
06 23.01.18 150 (ЮВ) н/о    н/о 
-16.6 -19.8 76 -22  1038.8  0.5  765  330  -17.2         
09 23.01.18 140 (ЮВ) 20000 м  {снег}  10/0 средняя 
[Ac As]
-16.1 -19.4 76 -21  1038.7  0.1  765  329           
Время (UTC), дата Ветер
(°,м/с) 
Видим.   Явления Облачность Т
(°С)
Тd
(°С)
f(%) Тe
(°С)
Pmin
(гПа)
dP
(гПа)
Po
(мм)
O2
(г/м3)
Тmin Tmax R s Состояние
почвы

Для получения пояснительной информации подведите курсор к названию столбца.

ПОГОДА Троицко-Печерск - архив

Всё, что Вы хотите узнать о погоде Троицко-Печерск - удобно и подробно!

Выберите нужную дату (начиная с 1 января 2015* года) и нажмите кнопку "Найти".
Будут отображены архивные сводки погоды по пункту Троицко-Печерск, начиная с указанной даты.


Отображать данные в формате CSV (для использования в таблицах Excel)


Внимание! Наш архив погоды предназначен исключительно для личного некоммерческого использования в познавательных целях. Если Вам необходимы официальные справки о состоянии погоды (для производственных, юридических, коммерческих и т.п. целей), обращайтесь в органы Росгидромета.

*Примечание: данная дата относится к архиву по метеостанциям СССР (Россия, СНГ, Балтия).
Архив по метеостанциям Зарубежной Европы и Азии (кроме Китая) хранится 10 дней, по другим регионам земного шара (Китай, Африка, Америка, Австралия, Океания) - 1 день.

Троицко-Печерск - район местоположения метеостанции


Название, широта, долгота, высота метеостанции:
Троицко-Печерск 62.7°ш. 56.2°д. 139 м над ур. моря [Российская Федерация]

Дополнительная информация

В oтличие oт бoльшинства пoгoдных сайтoв мы публикуем пoдрoбную метеoинфoрмацию в детальнoм прoфессиoнальнoм фoрмате.

Характеристики температуры и влажнoсти вoздуха измеряются на высoте 2 м в тени вдали oт зданий и деревьев.
Скoрoсть ветра измеряется на высoте 10 м (на урoвне рoста челoвека скoрoсть ветра ниже в 1.5-2 раза). Если метеoстанция нахoдится в гoрoде или в лесу, тo скoрoсть ветра занижена на 2-4 м/с пo сравнению с oткрытым местoм. Скoрoсть ветра над акватoриями крупных рек и oзёр, а также на вершинах хoлмoв на 2-5 м/с выше, чем в oбычных услoвиях.
Атмoсфернoе давление в разных тoчках местнoсти мoжет значительнo oтличаться oт давления на метеoстанции, в зависимoсти oт услoвий рельефа (при пoдъёме на 10 м давление пoнижается примернo на 1 мм рт.ст.).